QFA60 RJTT-YSSY

Flight info

Callsign QFA60
Flight time N/A
Altitude 36000
Route OPPAR UTIBO Y87 FITTO Y873 SABRI B586 CADDY/N0472F370 B586 UKATA 25N141E 20N142E DCT RIDLL A216 GALEE/N0466F390 A216 CS Y177 AKROM Y153 KANKO DCT SULMI DCT OVNOM H652 BOREE
Aircraft A333/H-SDE3GHIJ2J3J5M1RVWXY/LB2D1

Departure

Time 2026-05-03 22:23
Airport Tokyo Haneda International Airport (RJTT)

Arrival

Time N/A
Airport Sydney Kingsford Smith International Airport (YSSY)
Time Latitude Longitude Altitude Speed Heading
2026-05-03 21:55 35.54831 139.76579 27 ft 0 kts 149°
2026-05-03 21:59 35.54832 139.76579 27 ft 0 kts 149°
2026-05-03 22:01 35.54832 139.76578 27 ft 0 kts 149°
2026-05-03 22:12 35.54848 139.76566 26 ft 4 kts 138°
2026-05-03 22:12 35.54864 139.76541 26 ft 4 kts 107°
2026-05-03 22:12 35.54865 139.76512 26 ft 3 kts 64°
2026-05-03 22:12 35.54864 139.76509 26 ft 1 kts 62°
2026-05-03 22:14 35.54868 139.76518 26 ft 4 kts 62°
2026-05-03 22:15 35.54895 139.76574 26 ft 11 kts 59°
2026-05-03 22:15 35.54949 139.76684 26 ft 17 kts 62°
2026-05-03 22:15 35.55007 139.76811 26 ft 17 kts 59°
2026-05-03 22:15 35.55068 139.76929 26 ft 15 kts 60°
2026-05-03 22:16 35.55110 139.77039 26 ft 14 kts 62°
2026-05-03 22:16 35.55176 139.77094 26 ft 11 kts 353°
2026-05-03 22:16 35.55245 139.77063 26 ft 10 kts 328°
2026-05-03 22:16 35.55305 139.77018 26 ft 10 kts 328°
2026-05-03 22:17 35.55364 139.76974 26 ft 10 kts 329°
2026-05-03 22:17 35.55421 139.76931 26 ft 10 kts 329°
2026-05-03 22:17 35.55481 139.76905 26 ft 10 kts
2026-05-03 22:17 35.55554 139.76956 26 ft 15 kts 33°
2026-05-03 22:18 35.55654 139.77046 27 ft 20 kts 40°
2026-05-03 22:18 35.55763 139.77140 28 ft 19 kts 33°
2026-05-03 22:18 35.55873 139.77232 26 ft 19 kts 35°
2026-05-03 22:18 35.55954 139.77347 27 ft 18 kts 59°
2026-05-03 22:19 35.56014 139.77475 27 ft 17 kts 60°
2026-05-03 22:19 35.56071 139.77599 27 ft 16 kts 59°
2026-05-03 22:19 35.56130 139.77723 27 ft 19 kts 60°
2026-05-03 22:19 35.56201 139.77877 27 ft 23 kts 60°
2026-05-03 22:20 35.56289 139.78060 27 ft 27 kts 62°
2026-05-03 22:20 35.56389 139.78268 26 ft 28 kts 58°
2026-05-03 22:20 35.56481 139.78459 27 ft 25 kts 60°
2026-05-03 22:20 35.56535 139.78572 27 ft 13 kts 59°
2026-05-03 22:21 35.56568 139.78664 27 ft 9 kts 93°
2026-05-03 22:21 35.56549 139.78685 27 ft 0 kts 150°
2026-05-03 22:21 35.56546 139.78688 27 ft 5 kts 150°
2026-05-03 22:22 35.56361 139.78818 27 ft 59 kts 149°
2026-05-03 22:22 35.55849 139.79183 28 ft 110 kts 149°
2026-05-03 22:22 35.55050 139.79747 29 ft 153 kts 150°
2026-05-03 22:22 35.54117 139.80458 506 ft 152 kts 150°
2026-05-03 22:23 35.53180 139.80729 1034 ft 135 kts 200°
2026-05-03 22:23 35.52436 139.80018 1337 ft 143 kts 230°
2026-05-03 22:23 35.51779 139.79034 1519 ft 155 kts 225°
2026-05-03 22:23 35.50908 139.78116 1616 ft 176 kts 216°